Volver al catálogo

SL-16 DEB

ActivoLEO
NORAD 22295·DEBRIS·🇷🇺 Russia

Lanzado Dec 25, 1992 desde Baikonur Cosmodrome

Loading…

Próximos Pases (próximas 24 horas)

TLE

ActualizadoSource: Space-Track

Época: Sep 14, 2026, 13:57 UTC

1 22295U 92093K   26257.58154142  .00000094  00000-0  80726-4 0  9995
2 22295  71.0084 339.6637 0099151 290.5237 132.8329 14.07103132729730

Sigue SL-16 DEB en tiempo real con AllMySat

Download on the App Store